Location: Lecco
(45.8566°N, 9.3977°E)
Time: 15:11:25
(UTC+02:00)

ISS - Pass Details

Date: 20 July 2018
Orbit: 402 x 408 km, 51.6° (Epoch: 23 July)

Event Time Altitude Azimuth Distance (km) Brightness Sun altitude
Rises 03:50:15 0° 298° (WNW) 2,332 0.0 -16.1°
Reaches altitude 10° 03:52:20 10° 301° (WNW) 1,471 -1.0 -15.9°
Maximum altitude 03:55:38 69° 25° (NNE) 441 -3.5 -15.6°
Drops below altitude 10° 03:58:54 10° 110° (ESE) 1,467 -0.8 -15.3°
Sets 04:01:00 0° 112° (ESE) 2,326 0.2 -15.0°
